Temperature
15 15 15 16 17 17 19 22 23 23 22 21 21 21 20 19 19 16 14 14 14 14 15 15 16 16 16 16 17 17 17 17 17 17 17 17 17 17 17 17 17 17 17 17 17 17 16 16 16
15 15 16 17 17 18 20 22 22 20 20 20 20 20 21 18 17 15 14 14 14 14 14 15 15 16 16 16 16 17 17 17 17 17 17 17 17 17 17 17 17 17 17 17 17 17 16 16 16
14 15 16 17 18 20 21 21 20 19 19 19 20 20 19 18 16 14 13 14 14 14 14 14 15 15 16 16 16 16 17 17 17 17 17 17 17 17 17 17 17 17 17 16 16 16 16 16 16
14 15 17 17 19 21 21 20 19 19 19 19 19 18 17 16 15 14 13 13 14 14 14 14 15 15 15 16 16 16 16 16 16 17 17 17 17 17 16 17 17 17 16 16 16 16 16 16 16
14 16 17 17 19 20 19 19 19 19 19 19 18 18 16 14 14 14 13 13 13 13 13 14 14 14 15 15 15 16 16 16 16 16 16 16 16 16 16 16 16 16 16 16 16 16 16 16 16
15 17 17 18 20 20 19 18 18 19 19 18 18 17 15 14 14 13 13 13 13 13 13 13 13 14 14 14 15 15 15 16 16 16 16 16 16 16 16 16 16 16 16 16 16 16 16 16 16
15 16 17 19 19 19 18 17 17 17 18 17 17 16 15 13 13 13 12 12 12 12 12 12 13 13 13 14 14 14 15 15 15 16 16 16 16 16 16 16 16 16 16 16 16 16 16 15 15
14 16 17 18 19 18 17 16 16 16 16 16 16 16 14 13 12 12 12 12 12 12 12 12 12 12 13 13 13 13 14 14 15 15 15 15 15 15 15 15 15 16 16 16 16 15 15 15 15
14 14 16 18 18 17 16 16 15 15 14 15 15 14 13 13 12 12 12 12 11 11 11 11 11 12 12 12 12 13 13 13 14 14 14 14 14 15 15 15 15 15 15 15 15 15 15 15 15
14 14 15 15 15 15 15 15 15 14 14 15 14 14 13 12 12 11 11 11 11 11 11 11 11 11 11 11 12 12 12 12 12 12 13 13 13 14 14 14 14 14 14 15 15 15 15 15 15
15 14 15 15 14 14 14 14 14 14 14 15 14 13 12 12 11 11 11 11 10 10 10 10 10 10 10 11 11 11 11 11 12 12 12 12 12 13 13 13 14 14 14 14 14 14 14 14 14
14 14 14 13 12 12 13 13 13 13 14 14 13 13 12 12 11 11 11 10 10 10 10 10 10 10 10 10 10 10 10 10 11 11 11 11 12 12 12 12 13 13 13 13 14 14 13 14 14
14 13 13 12 12 11 12 12 12 13 13 13 12 12 12 11 11 11 10 10 10 10 9 9 9 9 9 9 9 9 9 10 10 10 10 10 11 11 11 11 12 12 12 13 13 13 13 13 13
13 13 13 12 12 12 12 12 12 13 13 12 12 12 12 11 11 10 10 10 9 9 9 9 8 8 8 8 9 9 9 9 9 9 9 10 10 10 10 10 11 11 12 12 12 12 12 12 12
12 12 12 12 12 12 11 11 12 13 13 13 12 12 12 11 11 10 10 9 9 9 8 8 8 8 8 8 8 8 8 8 8 8 9 9 9 9 9 10 10 10 11 11 11 11 12 12 12
12 12 12 13 13 12 10 10 14 14 13 13 13 13 12 12 11 10 10 9 9 8 8 8 8 7 7 7 7 7 7 7 8 8 8 8 8 8 8 9 9 10 10 10 10 11 11 11 11
12 12 13 13 13 12 11 10 13 14 13 13 13 13 12 12 11 10 10 9 9 8 8 7 7 7 7 7 7 7 7 7 7 7 7 8 8 8 8 8 9 9 9 9 9 10 10 10 10
12 12 13 14 13 12 10 11 12 14 13 13 13 13 12 12 11 10 10 9 9 8 8 7 7 7 7 6 6 6 6 6 6 7 7 7 7 7 7 7 8 8 8 9 9 9 9 9 10
11 11 11 13 12 11 10 11 12 13 13 13 13 13 12 12 11 10 9 9 8 8 8 7 7 7 6 6 6 6 6 6 6 6 6 6 7 7 7 7 7 7 8 8 8 8 8 9 9
11 10 11 12 12 11 10 10 11 12 12 13 13 13 12 11 10 10 9 8 8 8 7 7 7 6 6 6 5 5 5 5 5 5 6 6 6 6 6 6 7 7 7 7 8 8 8 8 8
10 10 10 10 10 10 9 9 12 12 13 13 12 12 12 11 10 9 9 8 8 7 7 7 6 6 6 5 5 5 5 5 5 5 5 5 5 6 6 6 6 6 7 7 7 7 7 7 8
9 10 9 9 8 7 9 7 11 12 11 11 12 12 11 11 10 9 8 8 7 7 7 6 6 6 5 5 5 5 4 4 4 5 5 5 5 5 5 5 6 6 6 6 7 7 7 7 7
9 9 9 8 7 6 8 6 8 12 11 11 11 11 11 10 9 9 8 8 7 7 6 6 6 5 5 5 5 4 4 4 4 4 4 4 4 5 5 5 5 6 6 6 6 6 6 7 7
9 8 8 8 7 5 8 7 8 11 11 11 10 11 10 10 9 9 8 7 7 6 6 6 5 5 5 5 4 4 4 4 4 4 4 4 4 4 5 5 5 5 5 6 6 6 6 6 6
8 7 7 7 6 7 10 8 8 12 12 11 10 10 10 9 9 8 8 7 7 6 6 6 5 5 5 4 4 4 4 4 4 4 3 3 3 4 4 4 5 5 5 5 6 6 6 6 6
7 7 7 7 8 9 9 8 10 12 12 11 11 10 10 9 9 8 7 7 6 6 6 5 5 5 4 4 4 4 4 3 3 3 3 3 3 3 4 4 4 4 5 5 5 5 5 5 6
7 7 8 6 6 5 7 10 11 11 11 10 10 10 9 9 8 8 7 7 6 6 6 5 5 4 4 4 4 4 3 3 3 3 3 3 3 3 3 4 4 4 4 5 5 5 5 5 5
7 7 6 5 6 6 8 10 9 10 10 10 9 9 9 9 8 8 7 7 6 6 5 5 4 4 4 3 3 3 3 3 3 3 3 3 3 3 3 3 3 4 4 4 4 5 5 5 5
5 5 6 6 6 6 6 8 11 10 10 9 8 9 9 8 8 7 7 6 6 5 5 4 4 4 3 3 3 3 3 3 3 3 3 3 2 2 3 3 3 3 3 4 4 4 4 4 4
5 6 5 5 5 5 5 6 10 9 9 9 9 9 9 8 8 7 6 6 5 5 5 4 4 3 3 3 3 3 3 3 2 2 2 2 2 2 2 2 3 3 3 3 3 4 4 4 4
Wind_Speed
15 14 9 3 4 5 7 4 1 5 5 6 7 5 5 6 5 7 4 6 6 6 9 12 14 15 14 14 14 13 12 10 8 7 6 3 0 2 3 5 7 7 8 8 8 8 8 8 8
13 9 5 4 4 6 6 5 4 7 7 5 4 3 2 6 7 7 5 6 6 7 9 10 12 13 14 14 13 13 11 10 9 7 6 4 2 1 3 3 5 7 8 8 8 8 9 9 9
10 8 4 4 5 4 2 6 10 8 7 3 2 4 4 5 7 5 5 5 6 7 9 10 11 12 12 13 13 13 12 10 9 8 5 5 3 2 2 3 4 5 6 7 8 8 9 9 9
5 4 4 5 10 3 2 6 7 6 5 2 2 2 4 7 5 6 5 6 6 6 9 9 10 11 11 11 12 11 12 11 9 8 7 5 4 3 2 3 4 5 5 6 7 8 9 9 10
4 4 5 7 9 2 4 7 5 1 3 2 1 2 4 6 9 7 5 6 6 6 8 8 9 9 10 10 10 11 11 11 10 8 8 6 4 3 3 4 4 5 5 6 7 8 9 10 10
4 4 5 9 7 4 4 4 1 2 1 2 1 1 3 6 7 5 5 5 6 6 6 7 9 9 9 9 9 9 10 10 9 9 8 8 6 4 4 4 5 5 6 6 7 8 9 9 10
4 4 6 7 3 3 5 4 1 3 1 2 3 2 4 6 6 4 4 4 5 5 5 5 7 8 8 8 8 8 9 9 9 8 8 8 8 6 5 5 5 6 7 7 8 8 8 9 10
4 4 6 5 3 2 5 3 3 4 3 3 3 2 3 4 4 3 3 3 4 4 4 4 6 7 8 7 7 7 7 8 8 8 8 7 7 7 6 5 5 6 7 8 9 9 9 9 10
4 3 4 3 3 4 5 1 2 1 4 2 0 3 4 3 3 3 3 3 3 4 4 4 5 6 7 7 7 7 7 7 7 7 7 7 6 6 6 5 6 6 7 8 9 10 10 10 10
3 3 1 4 6 4 3 2 2 2 5 4 3 2 3 2 2 3 3 3 3 3 4 4 4 6 7 7 6 5 6 5 5 6 6 5 5 6 6 6 6 6 7 7 8 10 10 8 7
3 2 1 3 6 5 3 3 2 4 5 3 1 1 2 1 2 3 3 3 3 3 4 4 4 5 6 4 5 4 4 4 5 6 6 6 5 5 4 3 3 4 5 4 5 7 7 6 6
2 2 2 2 3 4 5 5 5 7 5 3 3 2 1 3 3 2 2 3 2 3 3 3 3 3 4 5 4 4 3 3 3 5 6 5 2 2 2 2 2 2 2 2 2 3 5 6 7
4 2 2 1 2 5 7 8 8 9 7 4 2 2 4 4 3 2 2 2 2 3 3 3 3 3 4 4 4 4 3 3 4 4 5 5 3 2 3 3 2 3 2 3 3 3 5 6 7
2 3 4 4 5 5 7 10 7 8 5 5 5 6 5 4 3 3 2 2 2 3 3 3 3 3 3 3 4 3 4 4 4 4 5 6 4 3 3 4 4 3 3 3 4 4 4 5 6
3 4 6 7 6 2 3 9 9 9 5 7 7 7 6 4 3 3 2 2 2 2 2 3 4 3 3 4 4 4 4 4 3 4 5 5 5 4 4 4 4 4 4 4 4 4 4 5 5
5 5 4 6 6 5 1 7 3 6 6 8 7 6 4 4 4 3 2 2 2 2 2 3 4 4 4 4 4 4 4 4 4 4 5 5 6 6 4 4 5 5 4 4 5 5 4 5 5
5 4 4 3 6 4 4 8 6 4 6 8 7 6 4 4 4 3 2 1 2 2 2 3 3 4 4 4 4 5 5 4 5 4 4 5 6 6 5 5 5 5 4 4 5 5 5 5 5
2 3 4 3 4 2 7 12 12 7 7 8 7 6 4 4 3 1 1 1 2 2 3 3 3 4 4 4 4 4 4 4 5 4 5 6 6 6 5 5 6 6 5 5 5 6 5 5 5
4 5 7 6 2 3 9 14 15 10 8 8 7 5 4 3 1 1 1 2 2 3 3 3 3 4 3 3 4 4 5 5 5 5 6 7 7 7 6 6 6 6 6 6 6 6 6 5 4
5 7 7 6 2 4 10 16 15 10 9 7 6 5 4 2 0 0 1 1 2 3 3 3 4 4 4 4 4 5 5 5 6 5 6 7 7 7 7 7 6 7 6 7 7 6 6 5 5
6 6 5 7 9 7 8 10 6 4 5 5 6 5 3 2 2 1 1 2 2 3 3 4 5 5 5 5 4 5 4 5 6 5 5 6 7 8 7 8 7 7 7 7 8 7 7 7 6
4 2 4 6 6 5 3 6 5 5 6 7 6 4 3 2 1 1 2 3 3 3 3 4 5 6 6 5 5 6 6 7 8 6 6 7 8 8 8 9 8 8 8 8 8 8 7 8 7
1 3 4 5 5 6 5 5 8 6 6 7 6 4 3 2 1 1 2 2 3 2 3 5 6 6 6 6 6 7 7 7 7 6 7 7 7 8 9 9 8 9 8 8 9 8 8 8 9
1 3 5 4 2 5 7 7 7 4 6 5 5 4 3 2 1 1 1 2 3 3 4 5 6 6 6 6 6 7 8 9 9 8 8 7 6 7 8 9 8 9 8 8 9 9 9 9 10
3 1 1 2 3 6 5 6 8 4 3 4 5 4 3 2 1 1 2 3 4 4 4 5 5 6 6 6 7 8 9 10 10 10 9 8 7 7 8 9 8 9 8 9 9 9 10 10 11
5 4 3 3 4 2 2 7 6 3 4 5 4 3 2 2 2 2 3 4 4 5 5 5 6 7 7 7 8 8 9 8 7 9 8 8 7 8 9 9 10 10 9 10 9 9 10 10 11
4 4 0 1 2 4 6 6 4 5 4 4 3 2 2 2 3 3 4 4 5 5 5 6 7 7 8 8 8 9 9 8 8 8 8 7 7 8 9 10 11 10 10 10 10 10 10 10 11
3 1 3 4 3 5 6 7 4 5 4 3 2 3 3 3 4 4 4 5 5 5 5 6 7 7 8 8 8 9 8 8 7 7 8 8 9 9 10 11 11 10 10 10 10 10 11 12 11
6 4 5 4 3 4 5 5 1 4 4 2 3 3 2 2 4 5 5 5 6 6 6 7 7 8 7 7 8 8 8 8 8 7 8 8 9 10 10 11 11 11 10 10 10 11 11 13 12
5 6 7 5 5 5 4 7 1 4 3 1 1 2 2 3 4 5 6 6 6 6 7 7 7 8 8 7 8 8 9 9 8 9 9 9 10 9 10 10 10 11 11 10 11 12 13 13 13
Wind_Direction
300 274 249 240 234 232 241 240 114 79 58 37 22 9 25 29 31 102 123 41 33 46 51 43 32 28 25 24 23 21 23 22 25 29 29 23 3 211 209 202 197 197 199 198 195 187 180 175 170
294 275 245 236 240 236 234 202 111 66 70 52 30 339 22 73 73 92 69 28 27 42 49 46 36 29 25 23 22 20 17 18 17 21 26 19 4 298 232 212 204 204 205 203 197 191 188 182 178
274 265 241 229 231 243 351 60 83 79 71 41 38 10 24 62 70 74 47 17 27 38 48 49 38 28 24 21 20 18 15 10 9 10 12 14 5 338 280 234 221 216 210 205 199 192 189 186 183
264 230 242 246 250 261 31 74 77 91 93 50 14 67 70 46 61 69 44 20 26 33 42 40 37 27 22 18 15 14 11 6 0 1 357 353 352 333 303 260 230 224 222 215 205 198 194 186 183
249 241 230 236 242 236 53 57 68 122 129 111 8 52 79 72 73 63 35 21 25 29 34 33 25 22 19 14 10 7 4 1 358 352 351 338 330 323 298 275 245 230 227 224 215 206 196 188 187
246 245 240 236 223 163 111 74 41 289 94 99 19 339 102 97 72 46 27 18 29 31 30 32 18 14 10 8 4 1 358 354 353 348 342 340 322 308 296 277 259 243 234 229 222 210 203 196 194
266 256 257 271 241 151 106 83 346 317 316 46 8 324 126 85 64 35 18 19 36 36 26 27 17 10 0 358 358 357 350 347 345 341 333 330 323 303 291 282 267 254 245 235 227 216 211 206 203
310 285 258 265 263 124 86 86 41 349 342 29 352 313 96 75 41 10 0 23 41 37 25 21 14 7 359 350 349 350 341 337 337 331 326 321 316 303 284 277 268 257 251 241 230 224 217 213 210
286 269 264 317 347 79 82 83 82 13 299 285 322 20 59 52 15 354 349 8 24 20 20 15 5 4 356 347 346 341 332 330 331 327 323 317 307 305 290 273 267 256 253 245 233 230 224 214 210
237 258 343 20 13 34 57 350 353 267 254 244 211 142 83 53 355 337 331 343 5 3 10 16 7 358 353 345 339 332 329 328 328 330 324 313 311 309 302 292 277 260 253 244 235 232 224 210 203
243 283 29 31 25 4 334 298 270 264 262 258 233 108 87 303 288 302 314 332 351 357 11 13 6 357 349 342 333 333 328 331 330 330 326 317 317 312 308 299 278 267 254 245 239 227 219 210 201
269 308 332 9 28 324 303 298 281 245 260 340 11 10 291 267 279 290 298 316 346 1 6 7 7 351 339 334 324 321 326 320 320 321 326 322 313 310 302 287 282 277 263 249 238 236 223 216 208
229 243 256 267 245 269 279 269 270 260 254 265 270 249 247 258 272 281 289 311 349 348 349 351 351 335 325 321 316 328 313 310 317 319 319 319 304 286 285 276 273 263 266 243 232 231 228 221 213
352 307 266 245 243 244 270 272 258 249 226 225 226 229 234 239 249 259 277 308 321 326 329 330 327 316 317 310 307 305 317 313 310 309 305 308 308 287 285 275 263 257 259 246 236 229 235 233 223
278 263 243 215 218 204 303 275 225 223 206 225 229 225 214 219 229 238 240 265 287 301 306 314 311 316 308 303 300 305 300 303 296 294 295 299 303 290 277 276 263 259 268 256 244 234 230 240 232
226 240 242 183 185 152 221 282 222 169 197 231 236 234 216 210 221 222 218 245 279 291 300 310 310 308 297 295 290 289 290 296 289 292 287 285 290 290 277 271 266 263 263 249 239 229 232 236 232
213 246 255 174 174 173 221 266 269 200 215 237 238 232 218 216 222 212 194 226 274 279 280 282 289 292 293 291 285 287 287 286 287 284 279 275 278 283 275 266 267 267 254 246 248 238 228 231 232
285 276 287 268 164 239 257 265 274 256 238 240 236 226 212 215 226 190 172 225 255 260 260 264 279 286 290 288 287 287 283 282 281 273 270 273 272 273 272 265 266 259 252 247 240 240 236 233 229
315 305 292 293 34 298 266 274 276 264 239 232 230 220 212 213 194 110 158 230 246 264 273 271 280 287 294 290 285 283 280 280 278 263 267 269 271 270 261 262 267 255 247 244 243 239 233 234 220
266 279 282 297 0 304 281 280 273 254 233 222 219 214 202 204 152 118 248 252 251 264 276 283 282 285 284 277 271 265 268 271 270 264 265 262 266 267 268 255 258 258 248 243 241 236 234 235 213
253 259 291 306 321 272 276 288 238 193 200 197 203 202 190 184 205 231 259 276 279 281 282 291 283 282 279 278 276 281 276 277 276 270 263 254 258 261 261 255 252 256 247 239 234 231 231 229 224
258 346 308 305 315 299 307 294 265 206 195 196 195 186 184 173 194 232 261 276 273 273 275 280 282 285 282 278 273 274 271 273 272 268 264 261 256 258 258 257 250 251 248 240 234 233 232 224 225
251 2 295 280 276 289 243 242 274 214 202 200 187 180 176 162 187 249 258 274 277 273 269 271 277 277 277 274 267 268 266 267 270 268 268 266 260 258 255 256 251 250 248 243 235 229 232 231 226
291 275 252 241 262 269 219 210 270 215 201 190 175 168 164 166 196 265 292 284 280 273 267 272 277 279 276 275 273 272 269 273 275 274 269 265 265 263 256 255 252 250 246 243 237 227 231 235 232
203 218 274 231 226 247 179 208 249 238 158 155 161 171 186 190 208 251 288 288 282 278 274 279 283 286 285 285 281 279 276 271 269 271 266 264 263 264 260 258 255 253 248 246 243 232 227 230 229
190 199 183 233 266 309 203 235 249 173 124 129 144 163 181 208 232 247 264 275 278 278 276 281 278 282 283 284 280 276 277 272 265 265 264 263 259 259 260 258 256 254 248 250 245 241 232 231 228
182 200 172 235 279 279 254 246 251 158 144 152 161 169 228 249 256 261 270 281 283 282 278 280 283 279 280 279 281 282 280 278 274 273 266 266 266 269 261 256 256 253 251 248 243 239 233 231 228
285 169 157 187 233 260 262 244 226 172 191 193 201 235 250 263 272 276 278 283 285 281 283 287 287 285 279 281 283 290 285 281 277 278 275 272 271 269 267 259 254 252 252 249 244 242 233 233 230
184 200 205 216 235 237 272 264 85 137 150 185 221 243 265 284 297 301 301 294 294 294 294 292 290 288 288 285 284 287 288 287 283 280 280 278 273 269 266 264 256 253 252 251 248 243 235 235 232
202 205 187 194 224 213 251 270 261 115 110 96 283 309 315 307 302 302 305 308 306 303 300 297 295 293 292 290 290 290 291 292 286 283 283 284 283 276 271 268 261 256 254 250 248 247 236 236 233
Height
1483 1485 1487 1491 1492 1492 1484 1469 1463 1467 1472 1477 1478 1479 1482 1486 1490 1502 1502 1500 1499 1498 1497 1497 1496 1497 1497 1497 1498 1498 1499 1499 1500 1501 1501 1503 1504 1505 1506 1507 1508 1509 1510 1511 1511 1512 1512 1513 1514
1482 1485 1490 1490 1490 1490 1478 1467 1467 1472 1477 1480 1481 1483 1483 1489 1493 1497 1498 1498 1498 1498 1497 1496 1496 1496 1496 1496 1497 1497 1498 1498 1499 1500 1501 1502 1503 1504 1505 1506 1507 1508 1509 1510 1510 1511 1512 1512 1513
1483 1486 1489 1486 1484 1481 1474 1468 1471 1476 1479 1482 1484 1485 1487 1491 1494 1496 1497 1497 1497 1497 1496 1495 1495 1495 1495 1496 1496 1496 1497 1497 1498 1499 1500 1500 1501 1502 1503 1504 1505 1506 1507 1508 1509 1510 1510 1511 1512
1485 1488 1487 1485 1480 1471 1470 1472 1474 1477 1481 1484 1485 1487 1490 1493 1494 1496 1496 1497 1496 1496 1495 1495 1494 1494 1494 1494 1494 1495 1495 1496 1496 1497 1498 1498 1499 1500 1501 1502 1503 1504 1505 1506 1507 1508 1509 1510 1511
1485 1485 1484 1482 1476 1471 1472 1474 1477 1479 1481 1484 1486 1488 1491 1494 1493 1494 1495 1496 1495 1494 1493 1493 1493 1492 1492 1492 1492 1493 1493 1493 1494 1495 1495 1496 1497 1498 1499 1500 1501 1502 1503 1504 1505 1506 1507 1508 1509
1486 1482 1483 1479 1471 1470 1473 1477 1479 1480 1482 1485 1486 1488 1492 1493 1492 1493 1494 1494 1494 1493 1492 1491 1491 1491 1490 1490 1490 1490 1490 1491 1491 1492 1493 1493 1494 1495 1496 1497 1498 1499 1500 1501 1502 1503 1504 1506 1507
1485 1481 1478 1471 1470 1471 1475 1479 1481 1482 1483 1486 1487 1488 1491 1491 1491 1492 1493 1493 1492 1491 1491 1490 1489 1488 1488 1488 1488 1488 1488 1488 1488 1489 1489 1490 1491 1491 1492 1494 1495 1496 1497 1498 1499 1500 1501 1503 1504
1482 1481 1475 1471 1469 1473 1477 1480 1483 1484 1485 1487 1488 1488 1489 1490 1490 1491 1491 1492 1491 1490 1489 1488 1487 1486 1485 1485 1485 1485 1485 1485 1485 1486 1486 1487 1487 1488 1489 1490 1491 1492 1493 1494 1496 1497 1498 1499 1501
1483 1485 1478 1473 1472 1476 1479 1481 1484 1485 1486 1486 1487 1488 1489 1489 1489 1490 1490 1490 1489 1488 1487 1486 1484 1483 1483 1482 1482 1482 1482 1482 1482 1482 1482 1483 1483 1484 1485 1486 1487 1488 1489 1491 1492 1493 1494 1496 1497
1483 1483 1479 1479 1478 1479 1481 1483 1484 1485 1485 1485 1486 1487 1487 1488 1488 1488 1488 1488 1487 1486 1485 1483 1482 1481 1480 1479 1479 1478 1478 1478 1478 1478 1478 1479 1479 1480 1481 1482 1483 1484 1485 1486 1487 1489 1490 1491 1492
1480 1480 1479 1480 1481 1482 1482 1483 1484 1484 1483 1483 1484 1484 1485 1486 1487 1487 1486 1486 1485 1484 1483 1481 1480 1478 1477 1476 1475 1475 1475 1475 1474 1474 1475 1474 1475 1476 1476 1477 1478 1479 1480 1481 1483 1484 1485 1486 1487
1480 1480 1480 1481 1483 1483 1484 1483 1483 1482 1482 1482 1482 1482 1483 1484 1484 1485 1484 1484 1483 1482 1480 1479 1477 1476 1475 1473 1472 1471 1471 1471 1470 1470 1470 1470 1470 1471 1472 1473 1474 1475 1476 1477 1478 1479 1480 1481 1483
1480 1481 1481 1482 1483 1483 1483 1483 1482 1479 1479 1479 1480 1481 1481 1482 1482 1483 1482 1482 1481 1479 1478 1476 1475 1473 1471 1470 1469 1468 1467 1467 1466 1466 1466 1466 1465 1466 1467 1468 1469 1470 1471 1472 1473 1474 1475 1476 1478
1480 1480 1481 1481 1481 1481 1481 1480 1479 1474 1475 1477 1477 1478 1479 1480 1480 1480 1480 1479 1478 1477 1475 1474 1472 1470 1468 1467 1466 1465 1464 1463 1463 1462 1462 1462 1462 1462 1462 1463 1464 1465 1466 1467 1468 1469 1470 1472 1473
1481 1481 1479 1477 1478 1479 1481 1477 1472 1470 1473 1474 1475 1475 1476 1477 1477 1477 1477 1476 1475 1474 1472 1471 1469 1467 1466 1464 1463 1461 1460 1459 1459 1458 1458 1458 1458 1458 1458 1458 1459 1459 1461 1462 1463 1464 1465 1466 1468
1480 1479 1478 1473 1475 1477 1483 1477 1466 1467 1469 1470 1471 1472 1473 1473 1474 1474 1474 1473 1472 1471 1469 1468 1466 1464 1462 1461 1459 1458 1457 1455 1455 1454 1454 1454 1454 1454 1454 1454 1454 1455 1455 1456 1457 1458 1459 1461 1462
1477 1477 1472 1471 1472 1474 1478 1474 1465 1465 1466 1467 1467 1468 1469 1470 1471 1471 1470 1470 1469 1468 1466 1464 1462 1460 1458 1457 1456 1454 1453 1452 1451 1450 1450 1449 1449 1450 1449 1449 1450 1450 1450 1450 1452 1452 1454 1455 1456
1477 1474 1471 1469 1470 1472 1474 1469 1463 1462 1462 1462 1463 1464 1465 1466 1467 1467 1467 1466 1466 1465 1463 1461 1459 1457 1455 1453 1451 1450 1448 1447 1446 1445 1445 1444 1444 1444 1444 1444 1444 1445 1444 1445 1446 1447 1448 1450 1451
1477 1477 1477 1470 1469 1472 1470 1465 1459 1456 1457 1457 1458 1460 1462 1463 1464 1464 1464 1463 1462 1461 1460 1458 1456 1454 1452 1449 1447 1445 1443 1442 1441 1440 1439 1439 1438 1438 1438 1438 1439 1439 1438 1439 1440 1441 1443 1444 1446
1478 1479 1476 1470 1469 1472 1468 1462 1453 1450 1450 1452 1454 1456 1458 1460 1460 1460 1460 1460 1459 1457 1456 1454 1452 1450 1448 1445 1443 1441 1439 1437 1436 1435 1434 1434 1433 1433 1433 1432 1433 1433 1433 1433 1434 1436 1437 1438 1441
1477 1478 1477 1477 1473 1469 1469 1460 1447 1445 1446 1448 1450 1452 1454 1456 1457 1457 1457 1456 1455 1454 1452 1450 1448 1445 1443 1441 1438 1436 1434 1432 1431 1429 1428 1428 1427 1427 1427 1427 1427 1427 1427 1427 1428 1430 1431 1432 1434
1478 1475 1477 1478 1482 1479 1472 1476 1450 1444 1445 1446 1447 1449 1451 1452 1453 1454 1453 1453 1452 1450 1448 1446 1444 1441 1439 1436 1434 1431 1429 1427 1425 1423 1422 1421 1421 1420 1420 1420 1421 1421 1421 1421 1422 1423 1425 1427 1427
1475 1477 1478 1479 1481 1484 1473 1480 1458 1442 1444 1444 1445 1446 1448 1450 1450 1451 1450 1450 1449 1447 1445 1442 1439 1437 1434 1432 1429 1427 1424 1422 1420 1418 1416 1415 1414 1414 1414 1413 1413 1414 1414 1414 1415 1417 1418 1419 1420
1475 1477 1477 1479 1483 1488 1469 1473 1457 1441 1439 1439 1441 1444 1446 1447 1448 1448 1448 1447 1445 1443 1441 1438 1435 1432 1430 1427 1425 1422 1420 1417 1414 1412 1409 1408 1407 1406 1407 1406 1406 1407 1406 1407 1408 1409 1411 1413 1413
1477 1481 1481 1481 1483 1473 1456 1462 1453 1435 1433 1435 1439 1441 1443 1445 1445 1445 1444 1443 1442 1440 1437 1434 1431 1428 1425 1422 1420 1418 1415 1412 1408 1406 1403 1401 1400 1399 1399 1399 1399 1399 1399 1400 1401 1401 1403 1405 1406
1475 1476 1482 1480 1471 1461 1456 1458 1443 1432 1432 1434 1437 1440 1441 1442 1442 1442 1441 1440 1438 1436 1433 1430 1427 1424 1421 1418 1415 1412 1409 1406 1402 1400 1397 1395 1393 1392 1391 1392 1392 1391 1392 1392 1393 1394 1395 1397 1398
1471 1474 1472 1479 1479 1482 1461 1442 1433 1430 1432 1434 1436 1438 1439 1440 1440 1439 1438 1437 1435 1432 1429 1426 1423 1419 1416 1413 1409 1406 1403 1399 1396 1393 1391 1389 1387 1386 1385 1385 1384 1383 1384 1384 1384 1385 1387 1389 1390
1471 1470 1477 1480 1480 1472 1453 1442 1439 1433 1433 1434 1435 1436 1437 1437 1437 1436 1435 1433 1431 1428 1425 1422 1418 1415 1411 1407 1404 1401 1397 1393 1390 1387 1384 1381 1380 1379 1378 1377 1376 1375 1375 1375 1376 1377 1378 1380 1382
1472 1473 1472 1472 1470 1473 1465 1447 1428 1428 1430 1432 1433 1434 1434 1434 1433 1432 1431 1429 1427 1424 1421 1418 1414 1410 1406 1402 1399 1394 1390 1386 1383 1380 1377 1375 1374 1372 1370 1369 1368 1367 1367 1367 1368 1369 1370 1372 1373
1464 1465 1468 1475 1472 1469 1470 1453 1427 1427 1428 1430 1431 1432 1432 1431 1430 1429 1427 1425 1422 1420 1417 1413 1410 1406 1402 1397 1393 1389 1385 1381 1378 1375 1371 1369 1367 1365 1363 1361 1361 1360 1359 1359 1360 1361 1362 1364 1365